Sigla Aeroporto Press.
(hPa)
Vento
(°)/(Km/h)
T
(C)
Td
(C)
Umid.
Rel.
(%)
Visibilidade
(Km)
Nebulosidade Condições do Tempo Horário
Medição
SBAA CONCEIÇÃO ARAGUAIA BRASIL 1010 150/5.6 25 23 88 >= 10 - - 2021-04-17 20:00 GMT
SBAF AFONSOS ARPT (MIL) BRASIL 1011 110/13 29 15 42 >= 10 - - 2021-04-17 20:00 GMT
SBAM AMAPA AIRPORT BRASIL 1009 Ventos calmos 31 22 58 >= 10 Parcialmente nublado - 2011-10-13 18:00 GMT
SBAN ANAPOLIS (BRAZ-AFB) BRASIL 1016 -/5.6 25 15 53 >= 10 Predominantemente claro - 2021-04-17 20:00 GMT
SBAR ARACAJU/SANTA MARIA BRASIL 1012 160/13 26 22 78 >= 10 Parcialmente nublado - 2021-04-17 20:00 GMT
SBAT ALTA FLORESTA BRASIL 1010 310/11.1 30 24 70 >= 10 Predominantemente claro - 2021-04-17 20:00 GMT
SBAU ARAÇATUBA BRASIL 1011 300/14.8 34 14 30 >= 10 Predominantemente claro - 2021-04-16 18:00 GMT
SBBE BELEM/VAL DE CAES BRASIL 1009 70/9.3 26 24 88 >= 10 Nublado - 2021-04-17 20:00 GMT
SBBG BAGE/CMDT KRAEMER BRASIL 1017 140/9.3 24 16 60 >= 10 Parcialmente nublado - 2021-04-17 20:00 GMT
SBBH BELO HORIZ/PAMPULHA BRASIL 1015 70/5.6 24 11 44 >= 10 - - 2021-04-17 20:00 GMT
SBBI CURITIBA/BACACHERI BRASIL 1017 150/16.7 19 16 82 >= 10 Nublado - 2021-04-17 20:00 GMT
SBBQ BARBACENA (CIV/MIL) BRASIL 1019 80/9.3 22 13 56 >= 10 - - 2021-04-17 20:00 GMT
SBBR BRASILIA (CIV/MIL) BRASIL 1016 70/7.4 22 17 73 >= 10 Nublado - 2021-04-17 20:00 GMT
SBBU BAURU BRASIL 1012 290/9.3 28 18 54 >= 10 Parcialmente nublado - 2021-04-17 20:00 GMT
SBBV BOA VISTA (CIV/MIL) BRASIL 1009 80/16.7 30 21 58 >= 10 Nublado - 2021-04-17 20:00 GMT
SBBW BERRA DO GARCAS BRASIL 1011 120/7.4 28 20 61 >= 10 Nublado - 2021-04-17 20:00 GMT
SBCB SAO PAULO/CUMBIC AB BRASIL 1013 60/27.8 25 22 83 >= 10 Parcialmente nublado - 2021-04-17 20:00 GMT
SBCC CACHIMBO BRASIL 1011 210/9.3 21 21 100 1.5 Encoberto névoa úmida 2021-04-17 20:00 GMT
SBCF BELO HORIZ/TANCREDO BRASIL 1016 60/9.3 25 13 47 >= 10 - - 2021-04-17 20:00 GMT
SBCG CAMPO GRANDE INTL BRASIL 1012 230/20.4 27 19 61 >= 10 Predominantemente claro - 2021-04-17 20:00 GMT
SBCI CAROLINA AIRPORT BRASIL 1013 -/5.6 30 25 74 >= 10 Predominantemente claro - 2021-04-06 14:00 GMT
SBCJ CARAJAS/MARABA BRASIL 1012 90/5.6 25 22 83 >= 10 Parcialmente nublado - 2021-04-17 20:00 GMT
SBCO PORTO ALEGRE/CANOAS BRASIL 1015 140/14.8 25 19 69 >= 10 Nublado - 2021-04-17 20:00 GMT
SBCP CAMPOS/BARTOLOMEU BRASIL 1013 80/18.5 25 21 78 >= 10 Parcialmente nublado - 2021-04-17 20:00 GMT
SBCR CORUMBA INTL ARPT BRASIL 1009 170/7.4 30 23 66 >= 10 Parcialmente nublado - 2021-04-17 20:00 GMT
SBCT CURITIBA/AFONSO PENA BRASIL 1017 140/16.7 18 16 88 >= 10 Nublado - 2021-04-17 20:00 GMT
SBCV CARAVELAS AIRPORT BRASIL 1012 20/18.5 25 22 83 >= 10 - - 2008-10-27 22:00 GMT
SBCY CUIABA/MARECHAL RON BRASIL 1010 180/13 24 20 78 >= 10 Nublado - 2021-04-17 20:00 GMT
SBCZ CRUZEIRO DO SUL BRASIL 1010 340/7.4 29 24 74 >= 10 Nublado - 2021-04-17 20:00 GMT
SBDN PRESIDENTE PRUDENTE BRASIL 1012 260/9.3 25 18 65 >= 10 - - 2021-04-17 20:00 GMT
SBEG EDUARDO GOMES INTL BRASIL 1008 160/5.6 29 25 79 >= 10 Parcialmente nublado - 2021-04-17 20:00 GMT
SBEK JACAREACANGA BRASIL 1006 270/7.4 33 24 59 >= 10 - - 2021-04-16 19:00 GMT
SBES SAO PEDRO DA ALDEIA BRASIL 1013 70/18.5 26 22 78 >= 10 Parcialmente nublado - 2021-04-17 20:00 GMT
SBFI FOZ DO IGUACU ARPT BRASIL 1012 220/5.6 28 18 54 >= 10 Predominantemente claro - 2021-04-17 20:00 GMT
SBFL FLORIANOPOLIS ARPT BRASIL 1014 180/11.1 22 20 88 >= 10 Nublado pancadas nas vizinhanças 2021-04-17 20:00 GMT
SBFN FERNANDO DE NORONHA BRASIL 1010 120/13 27 25 88 >= 10 - - 2021-04-17 20:00 GMT
SBFZ FORTALEZA/PINTO MAR BRASIL 1009 90/16.7 28 24 78 >= 10 Predominantemente claro - 2021-04-17 20:00 GMT
SBGL GALEAO/RIO(CIV/MIL) BRASIL 1011 130/13 25 19 69 >= 10 Predominantemente claro - 2021-04-17 20:00 GMT
SBGO GOIANIA/SANTA GENOV BRASIL 1013 330/9.3 28 18 54 >= 10 Predominantemente claro - 2021-04-17 20:00 GMT
SBGP GUARAPUAVA BRASIL 1014 330/14.8 27 21 69 >= 10 Nublado - 2013-01-25 13:00 GMT
SBGR GUARULHOS (CIV/MIL) BRASIL 1015 150/1.9 23 17 69 >= 10 Nublado - 2021-04-17 20:00 GMT
SBGW GUARATINGUETA (MIL) BRASIL 1013 -/3.7 27 16 51 >= 10 Parcialmente nublado - 2021-04-17 20:00 GMT
SBHT ALTAMIRA BRASIL 1008 90/3.7 26 25 94 >= 10 Nublado - 2021-04-17 20:00 GMT
SBIC ITACOATIARA BRASIL 1011 -/3.7 26 23 83 >= 10 - - 2020-08-05 21:00 GMT
SBIH ITAITUBA BRASIL 1008 340/13 30 25 74 >= 10 Predominantemente claro - 2021-04-17 20:00 GMT
SBIL ILHEUS AIRPORT BRASIL 1013 110/9.3 27 23 78 >= 10 - - 2021-04-17 20:00 GMT
SBIZ IMPERATRIZE BRASIL 1009 50/9.3 28 24 78 >= 10 Encoberto - 2021-04-17 18:00 GMT
SBJF JUIZ FORA/FRANCISCO BRASIL 1022 360/5.6 15 13 87 >= 10 - - 2017-08-08 01:00 GMT
SBJP JOAO PESSOA/PRES CA BRASIL 1011 70/9.3 25 25 100 8.0 Nublado chuva leve 2021-04-17 20:00 GMT
SBJR RIO/JACAREPAGUA BRASIL 1011 140/7.4 28 18 54 >= 10 - - 2021-04-17 20:00 GMT
SBJV JOINVILLE BRASIL 1014 140/7.4 22 21 94 >= 10 Nublado - 2021-04-17 20:00 GMT
SBKG CAMPINA GRANDE BRASIL 1013 60/22.2 25 21 78 >= 10 Parcialmente nublado - 2021-04-17 20:00 GMT
SBKP CAMPINAS/VIRACOPOS BRASIL 1014 100/7.4 25 15 53 >= 10 Nublado - 2021-04-17 20:00 GMT
SBLB LABREA-IN-AMAZONAS BRASIL 1014 - 23 20 83